Wind_Speed
6 7 8 8 9 9 10 10 10 11 11 12 12 12 13 13 13 13 14 14 14 14 13 13 13 11 10 9 8 7 6 6 5 6 6 5 5 3 3 4 5 5 5 6 8 10 11 12 13 12 10 8 5 2 4 5 6 7 4 1 3 2 3 6 7 8 8 7 9 9 7 7 7 9 10 10 8 5 7 8 7 4 2 3 5 9 11 11
5 5 6 6 7 7 8 8 8 8 9 9 10 10 10 11 11 11 11 12 12 13 13 14 14 14 13 11 10 10 9 8 7 6 6 8 7 5 3 2 4 5 6 6 8 9 10 12 12 12 10 9 7 4 4 5 7 7 4 1 1 1 4 6 7 8 7 7 9 9 7 6 7 8 9 8 5 5 6 5 5 4 2 3 6 9 12 11
6 6 6 7 7 7 8 8 8 8 8 8 8 8 9 9 9 8 8 8 9 10 11 13 14 14 14 14 13 12 11 10 7 7 8 9 8 6 4 0 3 4 6 5 7 8 9 10 12 11 10 9 7 5 5 6 6 6 5 2 1 4 5 6 7 6 6 7 8 8 7 6 7 7 8 7 4 5 4 2 3 2 3 4 7 10 12 12
7 7 7 7 8 8 9 9 9 9 9 9 9 9 9 9 9 8 7 6 7 7 8 10 11 13 14 14 14 13 12 9 8 10 11 10 9 8 6 2 2 3 5 4 5 6 8 9 10 11 11 9 7 7 6 6 5 4 4 1 2 5 5 5 7 5 4 5 5 7 6 5 6 7 6 5 5 6 4 2 1 3 4 6 9 11 13 13
7 8 8 8 8 8 9 9 9 10 10 10 10 10 9 10 10 9 8 6 6 7 7 8 8 10 11 13 14 14 12 8 10 13 12 11 10 9 8 5 2 2 3 2 4 5 6 8 9 11 10 7 7 7 5 4 4 3 2 0 2 5 4 6 8 5 5 5 3 5 5 5 6 7 5 4 5 5 4 2 2 4 5 8 11 12 14 15
9 9 9 9 9 9 9 9 10 10 10 10 10 10 10 10 10 10 9 7 7 7 7 7 7 8 9 11 12 13 13 10 10 13 15 12 9 9 10 8 4 0 1 1 2 3 5 7 9 10 9 7 7 6 4 3 4 3 0 1 2 3 3 6 7 6 6 5 4 3 4 5 5 5 4 4 3 3 5 4 3 4 6 8 11 12 14 15
9 10 10 10 10 10 10 10 10 10 11 11 10 10 11 11 11 11 10 9 8 8 8 7 8 8 8 9 10 13 15 14 9 12 16 13 10 11 12 10 5 2 1 1 1 2 3 6 7 7 7 7 7 6 4 4 4 3 0 1 1 1 2 5 6 6 5 5 5 4 3 4 4 3 4 4 4 2 4 5 4 4 6 10 12 13 14 15
9 10 10 11 11 11 11 11 11 11 11 11 11 11 11 11 11 11 11 10 9 9 8 8 8 8 8 8 9 10 12 14 12 13 16 14 12 12 14 12 6 4 3 3 3 1 1 4 5 6 6 5 6 7 6 6 5 3 1 1 1 1 1 5 6 5 5 6 7 5 5 5 5 4 4 5 4 3 4 5 6 4 6 11 13 14 15 16
9 10 10 10 11 11 12 12 12 12 12 12 11 11 11 12 12 11 11 11 10 10 9 9 9 9 9 8 8 9 9 14 15 15 17 15 13 14 16 13 6 5 5 4 4 3 2 3 3 5 5 4 6 7 7 8 5 3 2 1 2 2 2 4 5 5 5 7 7 6 6 7 6 4 3 4 4 2 3 4 6 6 7 10 12 14 14 14
10 10 10 10 10 11 11 12 12 13 13 13 12 12 12 12 12 12 11 11 11 11 10 10 10 10 9 8 8 8 9 15 18 17 18 17 15 15 17 14 8 7 7 6 6 5 4 2 2 4 5 3 5 4 5 7 4 5 5 2 3 3 3 2 3 4 5 7 8 8 7 8 7 5 2 3 4 3 3 4 6 6 7 9 11 13 14 14
11 11 11 11 11 11 11 12 12 13 13 13 13 12 12 13 13 13 12 12 11 11 11 10 11 10 10 10 8 8 11 15 17 18 19 18 17 15 16 14 9 8 8 8 7 7 7 4 4 4 4 2 3 3 3 4 4 6 5 4 5 4 3 2 3 5 6 7 8 9 9 9 8 6 4 3 4 4 3 4 6 7 7 9 11 12 14 14
11 12 12 13 13 13 12 12 12 12 13 13 13 12 13 13 14 13 13 13 12 12 12 11 11 11 11 10 7 9 14 17 18 19 19 19 19 17 17 17 13 11 12 11 10 10 9 7 6 4 2 2 2 2 1 3 3 4 4 4 4 5 5 5 2 3 5 6 7 8 8 9 8 8 6 4 5 5 4 5 5 7 8 9 10 12 13 14
12 12 12 13 14 14 14 14 13 13 13 13 12 12 12 13 14 14 14 14 13 13 13 12 12 12 13 10 9 13 17 17 19 20 19 20 21 19 19 20 16 15 16 15 14 13 10 9 7 5 4 3 1 2 2 4 4 4 5 4 3 3 4 7 7 4 2 4 6 5 5 5 4 5 6 5 6 5 4 5 5 7 9 9 10 11 12 13
12 12 12 12 13 14 15 15 15 15 14 13 12 11 12 13 14 14 14 14 14 14 14 14 13 13 13 10 11 16 16 16 19 20 19 19 21 21 21 21 18 16 17 17 15 14 11 10 8 4 3 3 1 1 1 5 4 3 4 4 3 3 3 5 8 8 7 5 4 3 4 4 3 5 6 6 6 6 5 6 6 6 8 10 10 10 12 13
11 11 11 12 12 13 14 15 16 16 16 15 13 12 12 13 13 13 14 14 14 15 14 14 14 15 14 12 13 15 15 16 18 20 20 19 20 22 22 22 19 17 18 18 16 15 13 11 8 4 4 4 2 2 2 4 2 2 2 3 2 2 3 4 7 9 8 8 6 2 3 2 3 6 5 5 6 7 7 7 7 6 6 9 11 11 12 14
11 11 11 11 11 11 12 13 14 15 17 16 15 14 14 14 14 14 14 13 14 14 14 15 14 15 15 13 14 15 15 15 17 20 21 20 21 23 23 23 21 18 19 19 17 15 14 12 9 7 7 5 3 3 4 4 2 1 2 1 2 2 1 1 6 9 8 10 9 4 3 2 5 7 5 5 6 8 9 9 9 8 6 7 11 13 13 15
11 11 11 11 11 11 11 11 12 14 16 16 16 16 16 15 15 15 14 13 13 13 13 14 14 16 15 13 14 15 16 16 16 21 23 21 22 23 24 24 22 19 19 20 18 16 15 13 11 8 8 7 5 5 5 4 4 2 0 0 1 2 2 3 6 9 9 11 11 9 7 3 6 8 5 5 5 8 10 10 10 10 7 7 11 13 14 14
11 11 10 10 10 10 11 11 11 13 13 14 16 16 16 16 16 16 15 14 13 13 13 13 14 14 12 12 15 15 16 17 17 21 24 24 22 22 24 24 23 21 20 20 19 18 15 13 13 9 8 9 8 7 6 2 1 0 1 2 2 3 3 3 5 8 10 11 10 9 9 5 6 9 7 5 5 6 10 11 11 12 10 8 10 12 12 12
12 11 10 10 9 10 11 11 11 11 12 12 13 14 15 16 17 17 17 16 15 14 13 12 13 12 10 12 15 15 17 17 17 21 25 26 24 24 24 24 24 22 20 19 18 20 17 13 14 12 11 11 9 10 8 3 3 4 5 5 6 5 4 3 5 8 9 11 10 9 9 6 6 9 11 7 5 6 8 12 13 13 13 11 10 12 11 11
12 11 10 10 9 9 10 11 11 11 10 11 11 11 13 14 15 17 18 17 16 15 15 14 12 12 14 14 14 15 17 17 18 21 26 27 26 25 25 25 25 23 21 18 16 18 18 15 16 15 12 11 9 10 9 7 7 7 7 7 7 6 3 4 7 8 10 13 10 9 11 9 5 7 11 11 6 6 8 10 14 15 15 14 12 13 11 11
12 11 10 10 9 10 10 11 11 10 9 9 9 9 11 11 12 15 15 15 16 16 16 16 15 15 16 15 14 14 16 18 19 21 25 29 29 27 27 26 25 24 23 19 14 16 20 18 18 15 11 10 9 8 9 9 8 8 8 8 7 5 4 5 8 11 13 15 11 10 12 11 6 5 10 12 8 5 6 8 11 14 15 15 14 14 13 13
12 12 11 10 9 9 10 11 10 10 9 8 8 8 9 9 11 13 13 14 15 16 16 16 17 16 16 17 16 15 16 18 19 21 25 31 32 28 26 27 25 22 21 20 16 16 20 21 18 15 13 13 11 10 10 10 10 10 9 9 7 5 4 6 10 14 16 16 15 13 13 10 8 6 10 13 10 6 5 6 9 12 15 16 15 15 16 17
12 11 10 10 9 10 10 10 10 10 9 8 7 6 7 8 10 11 12 13 13 14 15 16 16 15 16 18 19 18 17 17 19 22 24 31 35 30 26 27 24 20 20 23 22 18 18 18 16 15 15 14 13 12 11 11 12 11 10 9 7 5 6 6 10 16 17 15 13 13 11 7 6 6 9 12 11 8 6 6 9 12 15 16 15 15 17 19
11 11 10 10 10 10 10 10 10 9 9 8 7 6 6 8 9 9 9 9 9 10 12 14 15 16 16 19 21 20 20 19 20 22 25 31 36 34 29 26 23 22 21 22 23 22 17 14 13 14 15 15 14 14 13 12 13 12 11 11 9 8 9 8 10 16 16 10 7 9 7 2 4 7 5 9 11 9 7 7 9 12 15 16 17 17 17 19
10 10 10 10 10 10 9 9 9 8 9 8 8 6 6 7 7 6 5 4 4 6 7 8 10 13 16 19 21 21 23 23 21 22 25 29 35 37 31 25 23 23 23 21 21 23 20 17 16 12 10 11 12 14 14 13 14 12 10 9 8 8 10 10 11 13 10 4 2 6 3 2 3 9 7 6 8 8 7 8 9 10 13 17 20 21 20 20
10 10 10 10 10 10 9 9 8 8 9 8 7 6 4 4 3 2 1 1 3 5 5 4 4 7 11 16 20 22 22 23 23 23 24 27 34 35 27 23 25 23 19 19 20 22 21 18 18 14 10 9 9 11 13 13 13 10 8 7 6 7 9 10 9 9 6 4 5 6 4 3 4 5 6 6 6 7 7 8 9 10 12 16 20 22 22 22
10 10 10 11 11 10 10 8 8 8 8 6 6 4 2 1 3 3 0 2 4 5 4 2 1 2 4 9 16 19 15 16 22 24 23 25 32 34 27 22 25 23 17 16 19 20 20 20 19 18 16 15 13 12 11 13 13 9 7 8 6 7 10 10 9 8 6 5 7 7 5 7 5 3 3 6 7 8 8 6 7 10 11 13 17 20 21 22
11 11 11 10 10 10 9 8 8 7 6 6 4 2 1 3 4 4 1 2 2 2 2 1 1 1 2 3 10 15 14 11 14 21 23 24 28 33 30 23 20 22 19 18 18 17 17 20 21 19 19 19 18 15 10 12 13 10 9 9 7 8 10 10 8 7 5 5 6 4 4 7 5 3 3 4 5 7 7 6 5 6 9 10 12 16 20 22
11 11 10 10 10 9 9 8 8 7 6 5 2 2 3 5 5 4 2 3 2 1 2 1 2 3 3 3 5 12 18 14 9 14 22 25 28 31 29 23 18 18 19 20 19 14 12 16 19 18 19 19 17 15 13 13 12 10 10 9 8 8 8 7 6 6 5 5 5 4 4 7 5 3 4 4 4 4 5 5 2 2 5 9 10 12 16 20
11 10 10 10 10 9 9 8 8 7 5 4 2 2 4 5 3 2 4 2 3 1 3 1 5 7 5 5 5 7 15 19 13 12 18 23 26 30 30 25 19 15 16 18 20 17 13 12 14 16 16 15 14 14 14 14 12 10 8 8 7 6 6 5 5 6 6 6 4 3 4 6 6 3 2 3 3 2 2 3 3 3 5 8 10 10 12 16
10 10 10 10 10 9 9 8 8 6 5 3 2 3 4 3 1 4 3 1 1 3 3 3 7 9 7 6 7 8 11 18 16 12 15 20 22 27 29 24 19 16 15 16 19 19 18 16 15 14 14 12 10 11 12 13 13 11 9 9 9 8 7 6 6 6 7 5 3 3 4 6 7 4 0 1 3 4 4 4 5 6 6 8 10 11 11 11
9 9 9 9 9 9 8 8 7 5 4 3 2 5 4 1 3 2 3 2 3 2 3 5 8 8 8 7 7 9 11 16 17 13 14 18 21 24 27 24 19 19 17 16 17 18 19 20 18 15 16 14 12 11 11 12 13 13 11 11 10 8 7 7 8 7 7 6 3 4 6 6 9 10 7 5 5 7 7 8 9 8 8 9 10 12 13 12
9 9 9 9 9 8 8 7 6 5 4 2 3 5 2 3 3 0 3 3 2 3 5 7 7 7 6 5 5 7 10 13 16 14 12 15 18 21 25 24 20 18 17 14 15 16 16 17 19 19 18 18 17 15 14 13 15 16 14 13 10 8 6 7 7 6 7 6 4 6 6 7 9 9 7 5 4 6 7 8 10 11 11 11 10 11 13 14
8 8 9 9 9 9 8 7 7 5 3 2 4 4 1 3 2 2 3 4 4 5 7 7 6 6 4 4 4 6 9 10 13 12 10 14 16 17 20 22 21 19 17 13 12 15 13 11 16 20 19 19 22 22 17 12 15 18 16 14 13 10 8 6 5 5 6 4 4 5 4 6 7 5 6 8 8 8 8 7 8 11 12 12 11 11 12 14
8 8 9 10 9 9 9 8 7 5 3 4 4 0 3 2 3 4 4 6 7 7 7 5 5 5 3 4 4 5 9 9 13 11 9 11 14 15 16 18 22 22 18 15 11 11 12 11 10 13 15 17 21 24 20 13 12 15 15 15 16 13 10 9 7 7 7 5 6 8 8 9 9 7 10 11 8 7 7 7 7 9 11 11 10 11 12 13
8 8 9 10 9 9 9 8 8 5 3 5 2 2 2 2 3 5 6 8 8 7 6 4 3 5 4 4 5 3 7 7 12 12 8 7 8 10 11 11 16 21 19 17 12 8 11 10 6 9 13 16 18 19 21 21 14 11 15 17 15 11 10 11 10 8 9 8 6 8 10 11 10 8 8 7 6 6 4 4 5 6 6 7 8 9 11 12
8 8 9 10 9 9 8 8 8 5 4 5 2 3 1 2 4 5 8 9 6 5 6 5 3 5 5 3 4 2 5 5 9 11 8 6 6 6 8 7 10 16 18 17 14 10 11 9 5 7 11 15 18 17 19 23 19 12 14 17 14 11 11 12 9 6 8 8 5 7 10 10 7 5 5 5 5 5 3 3 3 3 3 4 6 7 8 9
8 8 10 10 9 9 9 8 8 6 6 5 2 3 2 2 4 5 6 6 3 2 4 4 3 4 4 3 4 3 3 3 8 10 5 3 2 1 4 8 11 15 18 19 17 11 9 11 8 7 8 10 16 17 16 20 22 17 13 11 11 12 12 12 10 8 7 6 6 7 9 10 9 7 7 5 4 4 3 4 4 5 5 5 5 6 7 8
8 9 10 10 9 9 9 8 8 8 6 4 1 1 2 2 4 4 5 4 2 2 3 3 2 3 5 3 4 3 1 4 9 10 6 3 1 4 3 2 7 15 18 20 20 14 11 13 9 6 7 7 12 18 18 18 21 22 17 13 12 12 11 10 10 10 8 6 6 6 7 9 8 7 6 4 3 3 4 5 6 6 6 6 6 6 7 8
8 7 8 9 9 8 7 8 8 7 3 3 2 2 3 3 5 5 6 4 3 2 2 3 3 3 4 4 3 4 3 4 8 10 10 6 2 2 4 6 5 8 14 18 20 18 15 15 12 6 5 8 13 18 20 18 19 22 22 19 17 14 12 10 10 11 9 7 5 4 6 7 5 5 5 5 5 5 6 7 7 8 8 7 5 5 6 8
9 6 6 8 7 5 6 6 5 4 2 2 3 4 4 2 4 5 6 5 4 2 1 3 4 3 3 3 3 4 3 3 5 8 11 10 5 1 4 8 8 7 8 12 16 17 16 15 16 13 9 12 13 15 17 17 17 19 22 23 21 19 17 13 11 12 12 10 7 6 7 5 4 5 6 6 6 7 9 10 9 10 9 5 3 5 6 7
8 4 5 7 6 4 5 3 2 4 3 3 5 5 4 2 1 3 4 4 4 3 3 3 3 3 3 3 3 3 2 1 2 4 9 13 11 5 1 4 3 2 3 6 10 14 16 15 15 16 14 14 11 11 15 16 14 13 16 19 20 20 21 17 12 12 13 12 10 10 9 5 5 7 7 6 4 6 11 12 11 11 7 3 3 4 5 5
7 3 5 6 5 4 6 2 1 3 3 5 4 3 3 3 1 2 3 3 3 2 3 3 2 2 3 3 3 3 1 1 2 3 7 13 15 14 10 3 5 9 5 3 4 10 15 15 15 15 14 14 13 11 13 15 13 13 14 16 16 16 17 18 15 12 13 12 11 11 9 6 7 9 7 7 4 5 12 12 12 10 6 2 3 4 5 5
7 6 6 6 5 5 5 4 3 3 3 4 2 2 2 3 3 3 3 3 2 1 2 3 2 1 3 3 4 4 2 3 4 4 8 11 14 14 14 11 1 10 10 8 6 6 12 12 14 15 12 13 14 13 14 15 14 15 17 18 18 17 16 16 16 13 13 14 13 12 8 6 9 10 7 9 8 4 13 12 11 10 5 2 3 4 6 6
7 7 7 6 6 6 4 5 5 4 3 3 2 1 1 2 3 3 2 3 2 1 2 3 2 2 4 4 5 7 5 4 5 6 7 8 12 14 13 11 6 2 5 10 12 6 9 9 12 14 11 10 11 12 14 16 17 18 19 18 18 19 19 18 17 15 15 15 14 14 11 8 9 10 10 10 9 2 12 12 11 10 6 4 4 5 8 8
8 7 7 5 6 7 5 3 4 4 4 3 2 2 1 1 2 2 2 3 3 2 3 4 4 4 4 4 4 6 7 6 5 7 9 8 10 15 15 14 12 5 3 8 13 8 6 9 12 14 14 13 11 7 5 10 17 19 19 18 17 18 19 20 19 18 17 15 14 17 14 10 10 8 8 9 10 3 9 12 11 10 6 5 5 7 9 8
8 7 7 6 5 6 6 4 3 2 3 3 4 3 1 1 2 2 3 4 5 5 4 6 6 4 4 4 3 5 7 7 6 6 9 11 13 15 16 18 18 13 6 7 10 8 5 8 9 10 14 17 17 13 8 6 12 14 14 13 14 15 17 20 21 19 17 15 14 15 14 13 14 9 5 7 10 6 7 12 11 11 8 6 6 8 9 8
8 8 9 8 6 5 5 4 3 2 1 2 4 4 2 1 2 4 5 5 6 5 3 5 6 4 4 5 3 6 8 7 6 6 7 9 12 15 14 15 20 19 14 10 8 8 7 8 8 8 12 15 18 18 14 12 13 12 11 11 10 12 15 19 22 19 16 16 14 12 13 16 17 10 7 11 10 7 6 12 12 12 9 7 8 8 9 7
10 10 10 9 7 6 5 4 5 4 2 1 1 2 1 2 3 4 5 4 6 6 3 3 5 5 6 6 5 7 9 8 7 8 8 8 9 11 10 9 15 21 20 15 10 10 10 8 10 12 14 13 14 16 16 17 17 16 15 13 11 10 12 17 21 18 16 17 14 12 12 14 14 12 13 15 13 8 5 11 13 13 10 8 8 8 8 7
12 12 11 10 9 9 7 6 6 5 2 2 1 1 2 3 4 6 6 4 5 8 6 6 9 9 8 9 8 8 11 13 12 12 11 9 8 8 7 8 12 18 21 18 14 11 9 8 11 14 14 11 9 11 15 16 17 18 16 14 13 12 11 15 19 18 17 16 15 15 14 12 13 16 17 15 12 7 6 12 14 14 11 9 9 9 8 7
14 13 13 12 11 10 9 8 8 5 3 2 1 2 3 5 6 8 9 8 7 9 9 9 10 9 8 8 8 9 14 17 17 16 15 13 11 9 8 9 11 14 18 19 19 15 11 11 13 12 11 11 7 6 12 15 16 17 14 11 12 13 12 14 17 18 18 17 16 17 15 12 13 16 16 13 10 5 8 13 15 14 11 10 10 10 9 7
15 15 14 13 12 11 10 9 8 4 3 4 3 2 3 5 7 6 7 9 11 11 11 9 7 6 6 7 8 11 15 17 19 20 19 18 16 14 10 9 9 11 14 17 20 20 15 13 12 9 9 10 7 6 9 15 16 14 12 10 11 12 12 13 14 17 20 19 17 14 12 13 16 16 14 12 8 5 10 13 15 15 12 11 11 11 9 6
Wind_Direction
245 248 251 253 256 258 260 262 263 264 265 265 264 265 265 265 265 263 261 259 257 255 254 253 251 249 241 235 228 229 228 225 221 183 180 212 189 154 94 41 13 5 357 4 14 13 18 20 17 15 21 40 59 105 159 160 143 133 114 150 158 151 180 151 145 148 138 138 148 148 140 129 114 105 93 86 85 85 77 61 56 63 100 115 146 153 145 160
253 256 257 259 261 263 264 264 265 265 266 266 266 267 265 266 265 264 263 260 258 255 252 250 247 247 244 238 231 226 226 231 224 192 197 204 195 190 144 43 355 1 2 12 15 16 21 19 20 22 30 43 50 78 134 145 135 128 115 141 141 177 194 172 161 151 150 150 146 147 142 128 118 106 93 99 101 82 77 58 56 60 81 128 143 151 149 159
262 264 265 265 266 267 269 268 267 266 266 267 266 268 268 268 267 265 264 261 259 255 253 250 246 244 242 240 233 228 227 226 220 207 204 190 191 207 176 92 332 357 3 15 20 22 25 23 27 31 39 45 51 75 114 123 125 126 113 99 258 199 181 181 176 161 161 155 145 147 142 125 120 108 93 111 115 81 78 41 63 87 100 126 139 151 151 153
265 265 265 265 266 266 267 267 267 267 265 265 265 267 268 269 268 266 263 261 259 254 252 249 247 244 240 238 233 231 228 225 231 221 207 188 190 210 195 198 292 353 3 25 33 27 29 32 33 39 48 42 46 70 93 110 123 122 111 117 214 174 174 187 186 186 183 166 155 154 142 129 124 112 100 116 105 81 78 36 105 139 126 127 138 151 151 149
264 264 264 263 264 264 265 265 266 265 265 264 263 263 265 267 267 267 264 259 256 252 251 248 248 245 240 237 231 229 223 230 247 224 205 196 191 202 199 197 224 342 6 47 44 29 35 43 44 47 51 42 43 60 70 93 115 103 87 160 150 154 178 190 193 214 210 189 182 166 149 149 132 112 112 124 100 87 94 76 113 142 139 132 138 151 151 148
264 264 263 262 262 262 262 263 263 263 263 262 261 261 261 264 265 266 265 259 254 249 247 245 246 245 241 237 230 225 210 212 243 221 204 201 195 200 196 195 199 257 8 80 52 46 50 51 55 51 48 43 46 57 60 76 109 113 351 309 143 161 174 183 199 214 209 208 216 206 173 161 140 112 119 135 123 114 108 94 98 133 148 140 140 149 149 147
270 268 266 265 263 262 261 260 260 259 259 258 258 258 258 261 262 264 264 261 254 247 245 243 244 244 241 238 230 227 211 200 214 208 199 197 198 199 194 195 194 172 163 165 152 89 59 49 58 58 45 36 43 52 56 73 97 113 202 300 171 186 162 178 193 200 206 221 227 232 218 190 168 132 120 141 164 150 106 102 105 122 151 149 144 146 147 148
279 276 273 270 268 266 264 262 261 259 258 256 254 254 254 256 258 260 261 261 257 250 246 242 242 242 239 240 231 232 220 204 202 196 193 192 196 197 193 193 186 179 177 173 191 183 76 63 69 65 48 33 50 53 55 68 54 50 109 140 141 110 126 181 191 206 219 224 227 236 234 218 196 164 132 144 166 147 121 121 115 119 151 154 149 146 149 153
285 283 279 277 275 271 269 266 265 263 261 259 256 254 253 253 254 255 256 258 258 253 249 244 244 243 238 240 234 235 219 200 200 193 189 190 194 195 191 187 179 186 182 189 207 205 169 105 84 83 79 60 61 55 59 70 45 37 108 134 125 99 99 173 197 223 226 220 224 234 237 232 218 201 164 158 174 160 136 140 132 131 151 161 157 150 154 160
280 280 279 278 276 274 273 270 269 266 264 263 261 259 256 255 254 253 252 252 255 254 252 248 245 245 239 238 232 226 208 199 199 193 188 188 192 192 190 184 176 185 189 202 210 207 200 163 127 106 93 70 53 40 60 73 57 63 84 86 81 74 75 145 203 224 225 225 229 238 242 243 233 219 215 185 187 192 155 152 152 146 155 168 167 158 158 164
276 275 274 273 273 272 271 269 269 268 266 264 262 261 260 260 258 255 254 252 253 254 253 251 248 246 241 237 226 216 214 209 203 195 188 187 189 190 190 184 173 182 194 206 213 209 207 203 186 128 84 68 31 360 37 61 50 58 68 72 56 37 46 77 231 234 234 235 238 244 246 254 250 223 215 208 191 193 175 164 165 161 161 168 176 170 164 167
281 277 273 271 269 267 266 265 265 264 264 263 261 261 259 260 259 258 257 255 254 254 254 252 248 247 243 235 215 212 219 214 206 198 190 187 187 188 188 183 178 186 194 204 213 212 207 208 198 168 164 151 36 321 308 22 16 32 42 61 38 21 33 41 29 242 242 248 250 252 257 266 261 237 231 223 198 196 183 176 173 170 172 170 177 178 169 170
288 284 280 276 271 267 265 262 261 261 261 261 259 258 258 258 257 257 257 256 255 254 254 252 249 249 246 235 216 221 222 214 209 202 193 189 188 188 188 184 184 188 193 201 211 214 211 209 200 190 188 143 48 252 236 356 11 12 15 41 30 44 58 52 53 35 343 287 267 253 266 279 271 256 253 230 205 200 185 184 183 176 181 177 175 177 173 170
295 292 288 283 278 272 268 264 262 261 259 258 257 256 255 255 256 256 256 256 255 255 254 253 251 248 245 236 226 230 228 222 216 207 198 193 189 190 189 188 189 190 194 199 207 213 214 212 204 204 214 179 194 263 321 333 360 359 4 50 60 97 82 41 38 24 22 5 315 260 246 266 282 284 268 232 212 204 188 186 193 182 181 182 179 175 170 166
303 300 296 291 286 279 273 268 264 262 260 259 256 253 252 254 256 256 255 255 255 255 254 252 251 250 247 239 235 236 233 230 223 212 204 197 192 193 193 192 192 196 198 199 204 212 213 214 209 216 243 230 253 339 318 297 332 332 339 78 80 68 56 26 19 14 15 11 2 304 243 247 273 280 269 238 217 207 198 191 196 191 179 183 183 174 168 170
308 305 303 301 296 290 282 275 268 264 261 259 257 253 250 251 254 255 255 255 255 255 254 253 252 250 249 242 238 237 234 232 224 215 209 200 195 195 196 195 197 202 204 202 207 214 215 219 223 229 239 244 277 292 264 246 222 285 336 72 62 22 44 17 2 4 4 358 3 337 288 294 283 288 280 249 224 208 206 199 197 198 192 182 180 177 177 180
310 309 309 308 305 299 291 283 275 268 263 262 259 255 252 250 251 253 254 254 255 255 253 253 251 251 251 244 239 236 232 230 221 215 211 204 199 197 198 198 200 206 210 208 210 215 218 225 232 240 246 244 250 256 248 220 186 174 162 301 22 347 330 359 348 344 349 350 351 338 330 317 283 297 289 250 229 211 209 207 202 201 204 188 178 180 185 189
310 312 313 312 306 301 295 288 281 275 272 268 264 261 257 253 251 251 253 254 253 254 255 253 250 253 257 248 240 236 231 227 221 214 210 207 203 199 200 203 204 209 214 214 215 216 218 228 235 242 248 241 237 236 236 216 137 195 290 301 316 316 328 3 350 340 344 349 349 339 344 348 289 301 302 263 231 219 211 208 206 203 208 201 183 182 188 191
310 314 318 315 308 301 295 291 290 289 286 280 274 269 263 258 255 253 252 251 251 251 251 250 247 244 244 243 238 234 230 226 221 214 209 207 205 202 202 207 208 212 217 218 220 220 217 226 234 235 237 235 233 230 239 280 301 299 306 306 311 312 317 330 334 348 352 344 341 326 324 329 290 291 304 295 247 230 216 207 208 206 206 206 194 183 183 183
310 316 320 317 313 308 300 298 300 299 298 293 286 277 270 266 262 259 254 251 251 249 246 246 244 236 237 243 241 236 231 225 221 215 209 205 205 205 205 209 212 213 216 215 222 225 218 224 232 231 235 233 230 233 247 274 277 288 300 295 298 299 300 321 325 343 351 339 327 303 303 320 305 268 285 298 282 244 226 210 209 208 206 207 201 191 180 174
313 321 323 319 318 314 308 308 308 306 307 303 295 283 273 267 262 260 259 254 251 248 247 247 244 238 240 245 243 237 232 226 221 216 209 204 203 206 208 210 212 213 214 212 218 223 218 225 231 232 239 232 227 239 251 263 269 279 285 283 288 290 287 309 324 336 342 335 321 303 305 318 322 271 272 291 300 274 240 214 207 207 208 207 203 198 185 174
314 322 326 324 321 315 313 315 314 314 314 311 305 288 271 264 257 258 261 258 252 248 248 248 247 244 243 245 242 236 233 227 223 219 210 204 202 205 211 211 210 213 213 208 212 220 222 230 234 234 238 233 233 247 252 258 266 269 270 272 275 290 305 308 322 330 331 327 319 314 315 314 307 280 267 285 299 298 262 217 207 205 206 207 204 201 191 183
313 319 324 327 323 317 317 319 319 320 319 315 307 284 267 258 252 256 258 257 256 253 250 249 248 246 242 242 239 234 232 226 223 221 212 206 203 202 211 212 208 211 212 210 214 221 227 235 234 232 236 238 242 249 252 256 260 258 255 258 263 287 314 312 313 319 322 322 315 314 326 339 325 287 261 276 288 285 270 228 212 208 207 206 202 202 198 193
313 316 322 325 323 323 323 323 322 321 319 315 304 284 263 249 248 254 256 261 265 257 252 251 249 245 238 237 237 233 231 226 223 222 215 209 205 204 209 211 208 213 216 215 221 225 230 240 232 225 237 244 243 245 248 251 252 249 247 253 266 286 305 308 304 311 316 317 324 326 331 38 3 330 293 280 285 281 266 239 220 209 208 206 202 205 205 200
317 319 323 323 324 326 327 327 324 321 318 314 306 289 264 253 253 251 258 278 275 257 256 254 249 245 239 235 236 232 230 227 221 222 219 210 207 208 209 211 211 217 221 219 224 228 231 243 241 223 230 242 238 240 242 243 246 247 243 248 268 288 303 305 301 308 308 287 323 333 315 164 330 330 328 298 288 291 272 245 232 216 209 206 205 207 205 201
327 326 327 327 327 328 330 332 328 326 321 314 309 296 275 265 242 208 293 273 229 242 262 266 252 251 242 234 231 229 233 233 225 223 221 211 209 209 208 213 215 217 225 224 227 232 229 237 243 228 223 237 237 239 237 235 241 242 236 243 270 292 302 305 298 297 293 259 274 297 288 277 298 309 321 320 303 300 284 253 237 225 214 208 208 209 206 202
340 337 336 335 333 332 335 335 334 334 323 318 319 305 297 210 166 139 153 225 206 223 242 253 255 271 257 237 228 223 225 233 229 226 222 213 210 208 205 212 218 218 218 218 225 234 228 227 233 232 234 243 243 241 236 231 234 235 241 255 277 294 299 303 290 275 277 272 277 285 282 280 269 227 283 308 307 304 297 281 254 235 223 212 208 209 209 207
348 347 346 344 343 341 341 342 340 340 331 329 332 321 87 134 138 119 189 237 145 165 226 235 245 290 330 271 228 214 208 217 229 227 223 215 208 208 209 211 220 222 216 214 223 232 230 227 232 237 239 241 239 238 238 232 233 239 254 262 276 291 297 299 282 262 262 259 258 269 270 269 258 199 223 260 280 301 312 317 295 249 236 224 212 207 208 209
357 357 355 354 356 352 352 353 347 346 343 343 354 27 104 134 123 111 237 260 108 123 277 274 310 320 333 314 249 216 211 207 209 221 221 215 208 208 211 211 219 225 221 224 229 233 235 231 231 233 234 238 239 238 237 234 234 240 251 262 273 286 296 294 268 246 252 251 239 243 263 271 268 230 231 237 242 290 311 313 309 222 217 223 223 214 207 206
9 7 5 5 6 4 4 3 357 356 353 359 32 71 119 126 117 199 242 207 109 3 306 300 326 325 320 308 289 248 219 206 206 219 215 212 211 209 209 210 215 220 222 229 232 236 246 244 234 228 229 236 238 236 234 230 229 231 238 250 252 262 286 285 249 233 243 241 235 251 263 271 272 231 180 215 228 241 263 271 269 230 204 206 214 218 214 208
16 16 15 14 14 13 10 8 7 3 3 18 57 102 112 105 199 258 264 185 158 349 356 327 326 323 311 297 278 263 224 205 210 218 205 204 208 209 210 209 209 215 222 230 234 238 243 247 243 234 231 233 228 230 230 220 218 222 230 239 239 241 257 257 237 235 248 239 220 257 258 257 259 249 235 287 263 260 241 241 260 258 241 220 206 205 210 211
21 22 23 21 19 18 14 14 13 7 19 34 89 110 94 10 239 256 335 290 252 335 353 325 337 331 304 292 271 250 219 205 208 208 201 200 202 204 208 207 204 211 219 225 232 237 239 240 241 239 236 230 219 219 219 210 211 216 220 229 237 239 238 242 236 235 249 242 230 265 261 253 256 260 279 298 282 273 262 252 252 253 251 240 218 205 203 204
22 25 25 23 23 23 19 20 18 15 28 49 94 100 80 280 247 276 1 334 295 338 338 336 352 342 315 308 283 239 208 205 205 203 201 200 203 207 210 211 210 214 222 225 227 232 237 236 233 233 234 227 217 214 208 204 210 214 216 220 230 237 236 242 236 233 243 236 243 270 256 251 257 250 252 281 289 275 270 263 251 243 243 239 227 215 207 202
23 24 22 25 29 30 28 25 22 22 28 69 83 85 274 279 304 322 326 332 319 322 333 343 351 337 335 352 298 211 185 194 197 197 199 197 204 210 210 213 215 216 227 235 233 232 234 233 222 219 224 223 217 214 213 213 215 216 218 224 230 237 247 253 248 251 257 235 232 255 247 253 260 236 238 276 295 284 276 276 258 242 241 242 231 221 214 207
24 24 22 27 32 33 34 30 27 25 36 75 83 347 276 303 355 335 312 318 321 322 325 327 330 318 320 12 360 177 171 185 190 189 197 200 209 213 210 215 216 214 222 232 235 233 236 246 230 211 214 215 213 214 216 221 223 213 213 223 230 234 244 257 263 271 281 275 241 236 249 265 269 264 267 282 301 295 273 262 256 244 240 244 236 223 221 216
23 23 26 31 33 34 37 40 40 32 51 85 108 268 315 329 331 331 311 306 312 320 323 310 315 317 306 3 19 167 168 169 181 186 192 197 206 213 212 216 217 216 221 228 231 230 234 237 214 210 221 215 212 216 215 216 217 206 210 220 225 229 243 256 262 259 264 271 249 233 250 259 257 256 265 285 317 318 284 241 246 244 236 242 236 227 227 224
20 21 27 33 33 35 42 50 50 43 65 92 191 236 64 333 312 326 319 313 313 316 324 310 303 327 310 325 25 112 158 146 169 184 192 191 191 206 214 218 220 218 221 231 242 247 247 247 219 222 234 217 209 211 213 216 216 213 221 224 220 224 241 253 260 249 244 254 247 241 256 259 246 227 235 267 307 316 287 220 216 203 193 220 225 227 235 232
18 19 25 29 29 36 49 54 57 60 80 102 197 220 124 5 333 338 332 329 339 353 337 320 309 344 332 323 32 73 173 160 160 174 181 179 182 267 234 231 237 234 227 231 240 244 249 262 255 219 223 214 202 201 205 210 212 216 224 219 213 222 231 234 243 252 253 256 250 244 254 262 256 235 229 250 289 299 258 202 178 172 175 200 216 221 231 232
19 20 19 17 20 34 49 54 62 71 89 121 127 181 132 49 14 7 358 352 26 26 348 344 336 349 6 18 30 46 151 154 155 170 176 157 98 16 3 282 250 247 241 233 235 239 243 256 251 199 201 214 199 200 205 201 204 216 225 222 219 228 235 230 233 247 255 260 260 249 248 255 247 229 233 257 290 290 235 184 168 174 187 205 216 222 226 224
22 26 10 5 15 29 42 53 68 80 109 169 151 147 148 74 38 35 31 34 57 47 356 1 344 325 3 20 23 42 75 136 150 167 176 171 157 356 330 325 300 263 255 240 233 234 235 240 240 216 200 211 203 204 209 205 202 211 219 223 222 223 234 244 245 245 252 262 267 256 254 252 221 218 255 274 273 253 206 180 172 182 197 207 217 236 237 223
27 28 356 360 12 21 39 55 91 114 120 170 170 167 162 110 48 38 37 44 49 39 24 12 359 349 351 348 12 35 53 121 142 160 177 183 176 75 322 307 291 276 270 249 233 227 226 231 236 236 227 220 212 203 210 216 214 213 218 222 224 224 229 240 245 239 242 253 257 256 269 265 201 231 278 291 270 235 199 183 177 188 199 207 239 257 240 219
33 17 338 0 7 24 56 69 172 140 120 168 184 187 191 184 59 29 23 38 32 15 27 20 15 20 347 321 344 6 24 87 151 166 189 204 206 206 294 347 335 298 278 255 232 222 223 228 236 238 232 225 214 200 209 215 212 219 226 225 226 227 227 231 237 233 233 241 247 254 264 253 209 249 296 319 291 214 195 186 182 190 194 201 265 255 223 206
35 18 350 8 9 44 77 102 153 116 173 204 202 212 233 244 267 327 331 356 5 8 29 6 358 23 340 313 327 327 297 257 249 147 168 199 208 215 230 251 60 59 33 310 235 224 226 226 232 237 235 233 230 222 223 222 219 226 229 225 228 229 227 231 238 241 240 235 233 242 246 228 233 261 300 339 355 184 190 187 183 186 183 191 252 227 200 195
32 24 11 19 30 59 94 147 134 117 197 205 196 253 269 273 274 288 297 308 319 343 14 343 308 6 338 316 326 320 274 237 234 173 160 179 190 200 217 229 166 57 33 8 360 262 234 223 226 230 226 225 224 220 224 228 230 229 224 223 227 229 230 234 237 242 245 239 235 246 246 217 231 258 292 341 4 172 187 185 184 186 175 183 220 200 190 187
36 28 19 28 46 58 96 153 141 136 172 152 146 226 319 301 270 265 290 309 310 301 358 340 304 326 334 321 324 323 303 251 222 205 190 183 190 195 203 223 231 69 22 358 360 317 234 217 224 228 227 219 210 207 213 216 217 219 222 225 226 227 229 230 230 231 236 239 239 245 248 222 225 262 300 340 8 156 189 186 188 189 173 178 202 192 186 182
41 36 30 38 45 48 61 104 121 143 171 161 186 204 111 18 284 278 301 318 311 297 329 336 325 327 330 322 320 320 307 282 252 226 222 225 220 212 211 226 244 255 302 341 351 338 249 233 232 236 248 248 240 244 235 213 209 209 214 221 225 228 228 227 228 228 229 234 234 235 241 232 223 252 302 338 9 27 196 192 190 190 177 176 195 191 184 181
39 40 41 49 49 46 47 52 75 134 189 193 205 202 128 45 315 294 295 293 294 304 326 331 331 333 322 311 300 305 301 290 286 259 239 244 241 227 218 222 237 254 277 318 338 343 296 259 245 244 252 252 255 270 279 237 215 207 208 218 224 226 225 223 227 226 224 230 235 232 229 225 224 236 275 302 345 4 204 197 191 188 178 178 192 190 184 184
35 39 39 46 50 49 49 49 65 87 177 186 191 188 141 28 289 272 283 293 297 300 323 335 337 339 317 304 296 302 295 279 282 284 264 258 248 237 230 228 237 250 263 281 308 327 309 273 262 274 271 259 257 259 256 245 236 230 230 234 230 223 219 220 222 219 216 224 234 232 218 218 229 241 249 265 309 339 213 199 191 186 177 180 193 189 183 186
36 38 37 42 46 49 52 48 55 67 82 109 152 172 159 320 299 276 279 307 314 298 296 327 319 312 305 294 291 304 294 267 264 274 269 266 258 247 244 237 235 242 251 260 277 301 304 273 263 288 295 278 258 248 243 239 236 236 238 237 233 227 218 217 219 215 214 224 233 236 229 223 227 232 235 253 289 311 214 190 187 185 180 184 196 193 187 187
38 37 38 41 41 43 46 47 54 59 55 57 49 312 293 295 302 298 288 292 301 292 291 298 293 292 296 287 281 291 280 260 256 264 262 260 264 263 254 238 229 232 239 245 256 277 292 277 276 295 300 281 252 237 236 231 226 228 232 231 229 230 226 220 216 212 216 225 229 234 242 237 232 237 241 257 291 302 195 180 183 185 184 192 202 197 190 191
36 36 38 41 41 40 42 44 52 52 21 20 10 281 293 292 295 306 305 299 295 292 294 299 299 301 308 301 289 278 268 257 252 255 257 252 249 248 246 245 242 237 234 237 245 257 271 282 290 305 298 272 259 244 230 218 215 217 217 221 224 225 226 219 212 211 217 222 227 234 240 237 239 249 252 264 292 278 186 176 180 183 186 199 208 201 192 192
35 37 40 43 43 41 44 45 46 42 6 5 1 322 316 302 296 310 314 310 313 314 313 316 317 318 325 317 295 275 267 260 253 250 250 249 245 240 240 245 248 245 237 232 239 249 260 277 287 302 291 262 270 295 236 203 201 201 193 203 216 216 220 214 208 215 216 215 223 232 232 233 242 252 259 273 289 233 192 181 179 185 193 203 208 203 194 189
Height
3182 3182 3182 3182 3182 3182 3182 3182 3182 3182 3182 3182 3182 3181 3181 3181 3181 3181 3181 3182 3182 3182 3182 3182 3182 3183 3183 3184 3184 3185 3185 3185 3185 3186 3186 3186 3186 3186 3186 3186 3186 3186 3185 3185 3184 3184 3183 3183 3182 3181 3180 3179 3179 3179 3180 3180 3181 3182 3184 3185 3185 3185 3184 3185 3187 3187 3189 3190 3190 3191 3191 3192 3193 3193 3193 3194 3194 3194 3194 3194 3194 3194 3194 3194 3194 3195 3195 3196
3181 3182 3182 3181 3181 3181 3181 3181 3181 3181 3181 3181 3180 3180 3180 3180 3180 3180 3180 3180 3180 3181 3181 3181 3181 3181 3182 3183 3183 3184 3184 3185 3185 3185 3185 3185 3186 3186 3186 3186 3186 3186 3185 3185 3185 3184 3184 3183 3182 3181 3180 3180 3180 3180 3180 3181 3181 3182 3184 3185 3184 3185 3185 3185 3186 3187 3188 3190 3190 3191 3191 3192 3193 3193 3193 3194 3195 3194 3194 3194 3194 3194 3194 3194 3195 3195 3195 3196
3181 3181 3181 3181 3181 3180 3180 3180 3180 3180 3180 3180 3179 3179 3179 3179 3179 3179 3179 3179 3179 3179 3179 3179 3180 3180 3181 3181 3182 3183 3184 3184 3185 3185 3185 3185 3185 3186 3186 3186 3186 3186 3186 3186 3185 3185 3185 3184 3183 3182 3181 3181 3181 3181 3181 3181 3182 3183 3184 3185 3184 3184 3185 3185 3186 3187 3188 3189 3190 3191 3192 3192 3193 3193 3193 3195 3196 3195 3196 3195 3194 3194 3194 3194 3195 3195 3196 3197
3180 3180 3180 3180 3180 3180 3179 3179 3179 3179 3179 3179 3178 3178 3178 3178 3178 3178 3178 3178 3178 3178 3178 3178 3179 3179 3179 3180 3181 3182 3183 3184 3185 3184 3184 3184 3185 3185 3186 3186 3186 3186 3186 3186 3186 3186 3185 3184 3184 3183 3182 3183 3183 3182 3182 3182 3183 3183 3184 3185 3184 3184 3185 3185 3186 3187 3188 3189 3190 3191 3192 3193 3193 3194 3194 3195 3196 3196 3197 3196 3195 3195 3194 3194 3195 3196 3197 3197
3179 3179 3179 3179 3179 3178 3178 3178 3178 3178 3177 3177 3177 3177 3177 3177 3177 3177 3178 3178 3178 3177 3177 3177 3178 3178 3178 3179 3180 3181 3182 3184 3184 3183 3183 3184 3184 3185 3186 3186 3186 3187 3186 3186 3186 3186 3186 3185 3184 3183 3183 3184 3184 3184 3184 3183 3183 3183 3184 3184 3184 3184 3185 3185 3186 3187 3188 3189 3190 3191 3192 3193 3193 3194 3194 3195 3196 3197 3197 3196 3195 3195 3195 3195 3195 3196 3197 3198
3178 3178 3178 3178 3177 3177 3177 3177 3177 3176 3176 3176 3176 3176 3176 3176 3176 3176 3176 3177 3177 3177 3176 3177 3177 3177 3177 3177 3178 3179 3181 3183 3182 3181 3182 3183 3184 3185 3185 3186 3186 3187 3187 3187 3187 3187 3186 3186 3185 3185 3185 3186 3185 3185 3185 3183 3183 3183 3184 3184 3184 3185 3185 3185 3186 3187 3188 3188 3189 3190 3191 3192 3193 3194 3194 3195 3196 3196 3196 3195 3195 3195 3195 3195 3196 3197 3198 3198
3176 3176 3176 3176 3176 3176 3176 3176 3175 3175 3175 3175 3175 3175 3175 3175 3175 3175 3175 3176 3176 3176 3176 3176 3176 3176 3176 3177 3177 3178 3179 3180 3180 3180 3181 3182 3184 3184 3185 3186 3186 3187 3187 3187 3187 3187 3187 3186 3186 3186 3187 3187 3186 3186 3185 3184 3183 3184 3185 3184 3184 3185 3185 3185 3186 3187 3187 3188 3189 3190 3191 3192 3193 3194 3194 3194 3195 3195 3195 3195 3195 3195 3196 3196 3196 3197 3198 3199
3175 3175 3175 3175 3175 3175 3174 3174 3174 3174 3174 3174 3174 3174 3174 3174 3174 3174 3174 3175 3175 3175 3175 3175 3175 3175 3176 3176 3176 3177 3177 3178 3179 3179 3180 3182 3183 3184 3185 3186 3186 3187 3187 3187 3187 3187 3187 3187 3187 3187 3188 3188 3187 3186 3185 3185 3185 3185 3185 3185 3185 3185 3185 3185 3186 3187 3187 3188 3189 3189 3190 3191 3192 3193 3194 3194 3195 3195 3195 3195 3195 3195 3196 3196 3197 3197 3198 3199
3174 3174 3173 3173 3173 3173 3173 3173 3173 3173 3173 3173 3173 3173 3173 3173 3173 3173 3173 3174 3174 3174 3174 3174 3174 3174 3175 3175 3176 3176 3176 3177 3178 3178 3179 3181 3182 3183 3184 3185 3186 3187 3187 3187 3187 3187 3187 3187 3187 3187 3188 3188 3187 3187 3186 3186 3186 3186 3185 3185 3185 3185 3185 3185 3186 3186 3187 3188 3188 3189 3190 3190 3192 3193 3193 3194 3194 3194 3195 3195 3195 3195 3196 3197 3197 3198 3199 3200
3172 3172 3172 3172 3172 3172 3171 3171 3171 3171 3171 3171 3172 3172 3172 3172 3172 3172 3172 3173 3173 3173 3173 3173 3173 3174 3174 3174 3175 3175 3175 3176 3176 3177 3178 3180 3181 3183 3184 3185 3186 3187 3187 3187 3186 3187 3187 3187 3187 3187 3188 3188 3188 3188 3187 3187 3187 3186 3185 3185 3185 3185 3185 3185 3186 3186 3187 3187 3188 3188 3189 3190 3191 3192 3193 3193 3193 3194 3195 3195 3195 3195 3196 3197 3197 3198 3199 3200
3171 3171 3170 3170 3170 3170 3170 3170 3169 3169 3169 3170 3170 3170 3170 3170 3170 3171 3171 3171 3171 3172 3172 3172 3172 3173 3173 3173 3174 3174 3174 3174 3175 3176 3177 3179 3180 3182 3184 3185 3186 3187 3187 3186 3186 3187 3187 3187 3187 3187 3188 3189 3189 3189 3188 3187 3187 3186 3186 3186 3186 3185 3185 3186 3186 3186 3186 3187 3187 3188 3188 3189 3189 3191 3192 3192 3193 3194 3194 3195 3195 3195 3196 3197 3197 3198 3198 3200
3169 3169 3169 3169 3168 3168 3168 3168 3168 3168 3168 3168 3168 3168 3169 3169 3169 3169 3169 3170 3170 3170 3171 3171 3171 3171 3172 3172 3173 3173 3172 3173 3174 3175 3177 3178 3179 3181 3182 3183 3184 3185 3186 3186 3186 3186 3186 3186 3187 3187 3188 3188 3189 3189 3188 3187 3187 3187 3187 3187 3187 3186 3186 3186 3186 3186 3186 3187 3187 3187 3187 3187 3188 3190 3191 3192 3193 3193 3194 3194 3195 3195 3196 3197 3197 3198 3198 3199
3167 3167 3167 3167 3166 3166 3166 3166 3166 3166 3166 3166 3166 3167 3167 3167 3167 3167 3168 3168 3169 3169 3169 3170 3170 3170 3170 3171 3172 3171 3171 3172 3173 3174 3176 3177 3178 3179 3181 3182 3183 3184 3185 3185 3185 3185 3186 3186 3186 3187 3187 3187 3189 3189 3188 3187 3187 3187 3187 3187 3187 3187 3187 3187 3186 3187 3187 3187 3187 3187 3187 3186 3186 3188 3189 3191 3192 3193 3193 3194 3194 3195 3196 3196 3197 3198 3199 3199
3166 3165 3165 3165 3164 3164 3164 3164 3164 3164 3164 3165 3165 3165 3165 3165 3165 3166 3166 3167 3167 3167 3168 3168 3169 3169 3169 3170 3170 3170 3171 3172 3172 3174 3175 3176 3177 3179 3180 3181 3182 3183 3184 3184 3184 3185 3186 3186 3186 3187 3187 3187 3188 3188 3188 3188 3187 3188 3187 3187 3188 3188 3188 3187 3187 3187 3187 3187 3186 3187 3187 3186 3185 3186 3188 3190 3191 3192 3193 3193 3194 3195 3195 3196 3197 3198 3198 3199
3164 3164 3163 3163 3162 3162 3162 3162 3162 3162 3162 3163 3163 3164 3164 3164 3164 3164 3165 3165 3165 3166 3166 3167 3167 3167 3168 3169 3169 3169 3170 3170 3172 3173 3174 3175 3177 3178 3179 3180 3181 3182 3183 3183 3184 3185 3185 3186 3186 3187 3187 3187 3187 3188 3189 3189 3188 3188 3187 3187 3188 3188 3187 3187 3187 3187 3186 3186 3186 3186 3186 3185 3185 3186 3188 3189 3190 3191 3192 3193 3194 3194 3195 3195 3196 3197 3198 3199
3163 3162 3162 3161 3161 3161 3160 3160 3160 3160 3160 3160 3161 3162 3162 3162 3162 3163 3163 3164 3164 3164 3165 3165 3165 3166 3166 3167 3167 3168 3169 3169 3171 3172 3173 3175 3176 3177 3178 3179 3181 3181 3182 3183 3184 3184 3185 3186 3186 3187 3187 3187 3188 3189 3190 3189 3188 3188 3188 3187 3188 3188 3187 3187 3186 3186 3186 3185 3185 3186 3186 3185 3185 3186 3187 3188 3189 3190 3191 3192 3193 3194 3194 3195 3195 3197 3198 3198
3161 3161 3160 3160 3159 3159 3159 3158 3158 3158 3158 3158 3159 3159 3160 3160 3161 3161 3162 3162 3163 3163 3163 3163 3164 3164 3165 3165 3166 3166 3167 3168 3169 3170 3172 3173 3174 3176 3177 3178 3180 3181 3182 3182 3183 3184 3185 3185 3186 3187 3187 3187 3189 3189 3189 3187 3187 3188 3188 3187 3187 3187 3187 3186 3186 3186 3185 3185 3185 3184 3184 3185 3185 3185 3185 3187 3187 3189 3190 3191 3192 3193 3194 3194 3195 3196 3197 3198
3160 3160 3159 3159 3158 3157 3157 3157 3156 3156 3156 3156 3157 3157 3158 3158 3159 3159 3160 3161 3161 3161 3162 3162 3162 3163 3164 3163 3164 3164 3165 3166 3167 3168 3170 3172 3173 3175 3177 3178 3179 3180 3181 3182 3183 3184 3185 3185 3186 3187 3188 3187 3188 3189 3187 3186 3187 3188 3188 3187 3187 3187 3186 3186 3187 3186 3185 3185 3184 3184 3184 3184 3184 3183 3184 3185 3186 3187 3188 3189 3191 3192 3193 3193 3194 3195 3196 3197
3159 3158 3158 3157 3157 3156 3155 3155 3155 3155 3155 3155 3155 3155 3156 3156 3157 3158 3158 3159 3159 3160 3160 3160 3160 3162 3162 3161 3162 3163 3163 3164 3165 3166 3168 3170 3172 3174 3176 3177 3178 3179 3180 3182 3182 3183 3184 3185 3186 3186 3187 3187 3187 3188 3187 3186 3187 3188 3187 3187 3187 3187 3186 3186 3186 3185 3185 3184 3184 3184 3183 3184 3184 3183 3182 3183 3185 3185 3186 3188 3189 3190 3191 3192 3193 3194 3195 3196
3158 3157 3157 3156 3155 3155 3154 3154 3154 3153 3153 3153 3154 3154 3154 3154 3155 3155 3156 3156 3157 3158 3158 3158 3159 3160 3160 3160 3160 3161 3162 3163 3164 3165 3166 3169 3171 3173 3175 3176 3177 3179 3179 3181 3182 3182 3184 3185 3185 3185 3185 3186 3187 3187 3187 3187 3187 3187 3187 3187 3187 3186 3186 3186 3185 3184 3184 3184 3184 3183 3183 3183 3183 3183 3182 3182 3183 3184 3184 3185 3187 3188 3190 3191 3192 3193 3194 3195
3157 3156 3156 3155 3154 3154 3153 3153 3152 3152 3152 3152 3152 3152 3152 3153 3153 3153 3153 3154 3155 3156 3156 3157 3157 3158 3158 3158 3159 3160 3160 3161 3162 3163 3165 3167 3170 3172 3173 3174 3176 3177 3178 3181 3182 3181 3182 3183 3183 3184 3185 3185 3185 3186 3186 3186 3186 3186 3187 3186 3186 3186 3186 3185 3185 3184 3184 3183 3183 3182 3181 3181 3182 3182 3181 3180 3181 3182 3183 3184 3185 3186 3188 3189 3191 3192 3193 3194
3156 3155 3155 3154 3153 3153 3152 3152 3151 3151 3151 3151 3151 3151 3151 3151 3151 3151 3151 3152 3152 3153 3154 3155 3155 3156 3157 3157 3157 3158 3159 3160 3161 3161 3163 3165 3168 3170 3172 3173 3175 3176 3178 3180 3181 3180 3180 3181 3181 3183 3183 3183 3184 3184 3185 3185 3185 3186 3186 3186 3185 3185 3185 3184 3183 3183 3183 3182 3181 3180 3179 3179 3180 3180 3180 3179 3180 3181 3182 3183 3183 3184 3186 3188 3189 3191 3192 3193
3155 3154 3154 3153 3153 3152 3151 3151 3150 3150 3150 3150 3149 3149 3149 3149 3149 3149 3150 3150 3151 3151 3152 3152 3153 3154 3155 3154 3154 3156 3157 3158 3159 3159 3161 3163 3165 3168 3170 3171 3174 3176 3177 3177 3178 3179 3179 3179 3180 3181 3181 3181 3183 3183 3184 3184 3184 3184 3185 3185 3185 3184 3184 3184 3183 3182 3182 3181 3180 3179 3178 3178 3178 3178 3178 3178 3178 3180 3181 3181 3182 3183 3184 3186 3188 3189 3190 3191
3154 3153 3153 3152 3152 3151 3151 3150 3149 3149 3149 3148 3148 3148 3148 3147 3148 3148 3149 3149 3150 3150 3150 3150 3151 3151 3152 3152 3152 3154 3155 3156 3157 3158 3159 3161 3163 3166 3167 3170 3173 3174 3175 3175 3176 3177 3178 3177 3178 3180 3180 3180 3182 3182 3183 3184 3183 3183 3183 3184 3184 3184 3183 3183 3183 3182 3180 3180 3179 3178 3177 3178 3178 3177 3177 3177 3177 3178 3179 3180 3180 3181 3182 3184 3186 3188 3189 3190
3153 3152 3152 3151 3150 3150 3150 3149 3149 3148 3148 3147 3147 3146 3146 3146 3147 3147 3148 3149 3149 3148 3148 3148 3149 3149 3149 3149 3150 3151 3152 3153 3155 3156 3157 3159 3162 3164 3166 3169 3171 3172 3173 3175 3176 3176 3177 3176 3175 3178 3179 3179 3180 3181 3182 3182 3182 3182 3182 3183 3183 3183 3183 3183 3182 3181 3180 3179 3179 3178 3177 3176 3177 3177 3176 3176 3176 3176 3177 3178 3179 3180 3181 3182 3183 3185 3186 3188
3151 3151 3150 3150 3149 3149 3149 3148 3148 3147 3147 3146 3146 3146 3146 3146 3146 3147 3148 3149 3149 3148 3148 3147 3147 3147 3147 3147 3148 3149 3151 3151 3153 3154 3154 3158 3160 3163 3167 3168 3168 3170 3172 3174 3175 3174 3175 3175 3174 3176 3178 3178 3179 3180 3181 3181 3181 3182 3181 3181 3182 3182 3182 3182 3181 3181 3179 3178 3178 3178 3177 3175 3176 3176 3176 3175 3175 3175 3175 3176 3177 3178 3179 3180 3181 3183 3184 3186
3150 3150 3149 3149 3148 3148 3147 3147 3147 3146 3146 3145 3145 3145 3145 3145 3146 3147 3147 3147 3147 3147 3147 3147 3147 3146 3146 3146 3146 3148 3150 3150 3150 3152 3153 3156 3158 3161 3165 3166 3166 3168 3171 3172 3172 3171 3172 3174 3173 3174 3176 3177 3178 3179 3179 3179 3180 3181 3180 3180 3181 3181 3181 3181 3180 3180 3179 3179 3178 3177 3178 3176 3174 3174 3175 3175 3174 3174 3174 3175 3175 3176 3177 3179 3180 3182 3183 3185
3150 3149 3148 3148 3147 3147 3147 3146 3146 3146 3145 3145 3145 3144 3145 3145 3146 3146 3147 3146 3145 3146 3146 3146 3146 3145 3145 3145 3145 3147 3148 3148 3150 3150 3151 3154 3156 3158 3161 3164 3166 3167 3168 3169 3170 3169 3170 3171 3172 3173 3175 3175 3176 3177 3178 3178 3179 3180 3179 3179 3180 3180 3180 3179 3179 3179 3179 3179 3177 3177 3178 3175 3172 3172 3174 3174 3174 3174 3173 3174 3174 3175 3176 3177 3179 3180 3181 3183
3149 3148 3148 3147 3147 3146 3146 3146 3145 3145 3144 3144 3144 3144 3145 3145 3145 3146 3147 3145 3145 3146 3146 3146 3146 3145 3145 3145 3145 3145 3147 3148 3149 3149 3150 3152 3154 3157 3159 3163 3166 3167 3167 3168 3168 3169 3168 3169 3171 3172 3173 3174 3174 3176 3177 3177 3178 3178 3178 3178 3179 3179 3179 3178 3178 3178 3178 3177 3176 3176 3177 3175 3170 3170 3172 3173 3173 3174 3173 3173 3173 3174 3175 3176 3177 3178 3180 3181
3149 3148 3148 3147 3146 3146 3145 3145 3145 3144 3144 3144 3144 3144 3145 3145 3146 3146 3145 3145 3146 3146 3146 3146 3146 3145 3145 3145 3145 3144 3145 3147 3148 3147 3149 3151 3153 3155 3158 3161 3164 3166 3167 3166 3167 3168 3166 3166 3168 3169 3171 3172 3173 3174 3175 3175 3177 3177 3177 3178 3179 3179 3178 3178 3177 3177 3177 3175 3175 3176 3177 3176 3171 3169 3170 3171 3172 3173 3173 3173 3173 3173 3174 3174 3176 3177 3178 3180
3149 3148 3148 3147 3146 3146 3145 3145 3145 3144 3144 3144 3144 3144 3145 3146 3146 3146 3144 3145 3147 3146 3146 3146 3146 3145 3144 3145 3145 3144 3144 3146 3147 3147 3148 3150 3152 3154 3157 3160 3162 3164 3165 3165 3165 3166 3165 3165 3166 3168 3169 3170 3171 3172 3172 3173 3175 3175 3177 3178 3177 3177 3177 3177 3176 3176 3175 3174 3174 3176 3176 3176 3173 3169 3169 3171 3171 3172 3172 3173 3173 3172 3173 3173 3174 3175 3177 3178
3150 3149 3148 3147 3147 3146 3146 3145 3145 3144 3144 3144 3144 3145 3146 3147 3147 3146 3145 3146 3147 3146 3146 3146 3145 3145 3144 3143 3144 3143 3143 3145 3146 3147 3148 3150 3151 3153 3155 3157 3159 3161 3162 3163 3163 3163 3164 3164 3165 3166 3167 3168 3170 3171 3171 3172 3173 3174 3176 3176 3175 3175 3176 3175 3173 3173 3173 3172 3174 3175 3175 3174 3172 3170 3169 3170 3171 3171 3171 3171 3172 3172 3172 3172 3173 3174 3175 3176
3150 3149 3148 3147 3147 3146 3146 3145 3145 3144 3144 3144 3145 3145 3147 3147 3146 3146 3147 3147 3147 3146 3146 3146 3145 3144 3143 3143 3142 3142 3143 3144 3145 3147 3149 3150 3152 3153 3154 3156 3158 3160 3159 3160 3161 3161 3161 3161 3163 3165 3165 3165 3167 3168 3169 3170 3171 3173 3173 3174 3174 3172 3174 3174 3171 3170 3170 3171 3173 3174 3173 3172 3170 3169 3169 3170 3170 3169 3169 3169 3170 3170 3171 3171 3172 3174 3174 3175
3150 3149 3148 3147 3147 3146 3145 3145 3145 3144 3144 3144 3145 3146 3148 3148 3146 3147 3148 3147 3146 3146 3146 3145 3145 3144 3143 3143 3141 3141 3142 3144 3145 3147 3148 3150 3151 3152 3154 3155 3157 3159 3159 3159 3159 3158 3158 3157 3158 3160 3162 3163 3164 3165 3167 3168 3169 3170 3172 3173 3172 3171 3172 3172 3170 3169 3170 3170 3172 3173 3171 3168 3167 3167 3168 3168 3168 3168 3167 3168 3168 3168 3169 3170 3171 3172 3173 3174
3150 3149 3148 3147 3147 3146 3146 3145 3145 3145 3145 3145 3146 3148 3149 3148 3148 3148 3148 3147 3146 3146 3146 3145 3145 3144 3143 3143 3141 3141 3142 3143 3144 3146 3148 3149 3150 3151 3152 3154 3155 3157 3159 3158 3157 3157 3157 3156 3155 3157 3159 3161 3162 3164 3166 3167 3168 3169 3170 3171 3170 3169 3170 3170 3169 3170 3170 3169 3169 3169 3168 3166 3166 3166 3167 3167 3166 3166 3166 3166 3166 3167 3168 3169 3170 3171 3172 3174
3150 3149 3148 3148 3147 3146 3146 3146 3145 3145 3145 3145 3148 3149 3149 3148 3148 3148 3147 3146 3146 3145 3145 3145 3145 3144 3143 3143 3143 3142 3142 3142 3143 3146 3147 3148 3150 3150 3151 3153 3154 3155 3157 3157 3156 3156 3156 3154 3155 3156 3157 3159 3161 3163 3164 3165 3166 3168 3169 3168 3168 3170 3170 3169 3168 3169 3170 3169 3165 3165 3165 3164 3164 3164 3165 3166 3166 3165 3165 3165 3165 3166 3167 3168 3169 3170 3171 3172
3150 3149 3148 3148 3147 3146 3146 3146 3146 3146 3145 3147 3149 3149 3149 3148 3147 3147 3146 3145 3145 3145 3145 3145 3144 3144 3144 3144 3144 3143 3142 3143 3144 3146 3147 3147 3148 3149 3150 3151 3152 3153 3155 3156 3156 3156 3155 3153 3153 3155 3156 3156 3159 3162 3163 3164 3165 3167 3167 3166 3167 3170 3170 3169 3168 3167 3168 3166 3163 3162 3162 3161 3161 3162 3164 3165 3165 3165 3164 3164 3165 3165 3166 3167 3168 3169 3170 3171
3150 3149 3148 3147 3147 3146 3146 3146 3146 3146 3146 3148 3149 3148 3148 3149 3147 3146 3146 3145 3145 3145 3146 3145 3145 3144 3144 3144 3144 3143 3143 3143 3144 3145 3146 3147 3147 3148 3149 3150 3150 3151 3153 3155 3155 3155 3156 3154 3152 3154 3155 3155 3156 3159 3161 3162 3164 3165 3165 3165 3166 3167 3168 3168 3168 3166 3165 3163 3161 3160 3161 3161 3160 3161 3163 3164 3165 3165 3164 3164 3164 3165 3166 3166 3167 3168 3169 3170
3149 3149 3148 3147 3147 3146 3146 3146 3146 3146 3147 3150 3150 3148 3148 3148 3147 3146 3146 3145 3145 3146 3146 3146 3145 3145 3145 3144 3144 3144 3143 3143 3143 3144 3146 3147 3147 3148 3148 3149 3149 3149 3151 3153 3154 3155 3156 3155 3152 3152 3154 3155 3156 3157 3157 3159 3161 3163 3163 3164 3165 3166 3166 3166 3165 3164 3163 3162 3161 3160 3160 3159 3159 3161 3162 3163 3164 3164 3164 3163 3164 3165 3165 3166 3166 3167 3168 3168
3149 3149 3148 3147 3146 3146 3146 3146 3146 3147 3149 3150 3149 3148 3148 3148 3147 3147 3146 3146 3146 3146 3146 3146 3146 3145 3145 3145 3145 3144 3143 3144 3143 3143 3144 3146 3147 3147 3148 3148 3148 3149 3149 3150 3152 3154 3155 3155 3152 3151 3153 3153 3153 3154 3155 3156 3158 3160 3161 3162 3163 3164 3165 3164 3163 3163 3162 3161 3160 3161 3159 3158 3159 3161 3162 3163 3163 3163 3163 3162 3163 3164 3164 3165 3166 3166 3166 3167
3149 3149 3149 3147 3146 3146 3146 3146 3147 3148 3149 3149 3148 3148 3148 3147 3147 3147 3146 3146 3146 3146 3146 3146 3146 3145 3145 3145 3145 3144 3144 3144 3144 3143 3143 3144 3146 3147 3148 3148 3148 3148 3148 3149 3150 3152 3153 3153 3152 3151 3151 3151 3150 3151 3153 3154 3155 3156 3157 3159 3160 3161 3163 3163 3161 3161 3162 3161 3160 3161 3159 3157 3159 3162 3162 3162 3161 3161 3161 3161 3162 3163 3164 3164 3165 3165 3165 3166
3149 3149 3149 3147 3146 3146 3146 3147 3148 3148 3149 3149 3148 3147 3147 3147 3147 3147 3146 3146 3146 3146 3146 3146 3145 3145 3145 3144 3144 3144 3144 3144 3144 3143 3142 3142 3144 3146 3148 3148 3147 3147 3148 3148 3148 3149 3150 3150 3150 3149 3149 3149 3149 3150 3151 3152 3152 3154 3154 3155 3157 3158 3159 3159 3158 3158 3160 3160 3160 3161 3159 3158 3159 3161 3161 3160 3159 3159 3160 3160 3161 3162 3163 3163 3164 3164 3164 3165
3149 3149 3148 3147 3146 3145 3146 3148 3148 3148 3148 3147 3147 3147 3147 3147 3147 3147 3146 3146 3146 3146 3146 3146 3145 3145 3144 3143 3143 3144 3144 3144 3144 3143 3142 3142 3142 3144 3147 3148 3146 3145 3146 3147 3147 3147 3147 3147 3148 3147 3147 3148 3148 3150 3151 3151 3151 3153 3153 3154 3155 3155 3156 3156 3156 3157 3158 3157 3158 3158 3157 3158 3159 3160 3160 3159 3158 3158 3159 3160 3161 3162 3162 3163 3163 3163 3164 3164
3149 3148 3147 3146 3146 3145 3146 3148 3149 3148 3147 3146 3147 3147 3146 3146 3146 3146 3146 3146 3145 3145 3146 3145 3144 3144 3144 3143 3143 3143 3143 3143 3143 3142 3142 3142 3142 3143 3145 3147 3145 3144 3144 3145 3145 3145 3145 3145 3146 3145 3145 3145 3146 3147 3149 3150 3151 3151 3152 3153 3154 3154 3156 3156 3156 3158 3157 3155 3156 3155 3154 3157 3159 3159 3159 3159 3158 3158 3158 3159 3160 3161 3162 3162 3163 3163 3163 3164
3149 3148 3147 3146 3146 3145 3146 3147 3147 3147 3147 3146 3147 3146 3146 3146 3145 3145 3145 3145 3145 3145 3145 3145 3144 3144 3144 3143 3143 3142 3142 3142 3143 3143 3143 3143 3143 3143 3144 3145 3145 3143 3143 3143 3143 3143 3143 3144 3144 3143 3140 3139 3140 3142 3144 3146 3148 3149 3150 3151 3152 3153 3154 3155 3155 3156 3155 3155 3156 3155 3155 3157 3158 3158 3159 3159 3158 3157 3158 3159 3160 3161 3161 3162 3162 3163 3163 3164
3149 3148 3147 3146 3146 3145 3145 3145 3145 3146 3146 3146 3146 3146 3146 3146 3145 3145 3145 3144 3144 3144 3144 3144 3144 3144 3143 3143 3143 3143 3141 3141 3141 3141 3142 3142 3142 3142 3142 3143 3144 3143 3142 3142 3142 3142 3142 3142 3142 3141 3139 3138 3138 3140 3141 3142 3144 3146 3147 3149 3150 3151 3152 3153 3153 3153 3154 3154 3154 3155 3156 3158 3158 3158 3159 3159 3158 3157 3158 3159 3160 3160 3161 3161 3162 3163 3163 3163
3148 3148 3147 3146 3146 3145 3145 3145 3145 3145 3145 3145 3145 3145 3145 3146 3145 3144 3144 3144 3143 3143 3144 3143 3143 3143 3143 3142 3142 3142 3141 3140 3140 3140 3140 3140 3140 3140 3141 3142 3143 3143 3142 3142 3142 3142 3142 3142 3141 3140 3140 3139 3139 3140 3141 3142 3142 3143 3145 3146 3148 3149 3150 3151 3151 3151 3153 3153 3152 3153 3157 3158 3157 3158 3159 3158 3158 3158 3157 3158 3159 3160 3160 3161 3162 3162 3163 3163
3148 3147 3147 3146 3146 3145 3145 3145 3145 3145 3144 3144 3144 3144 3145 3145 3144 3144 3143 3143 3143 3143 3144 3144 3142 3142 3142 3141 3141 3141 3140 3140 3139 3139 3138 3138 3138 3139 3140 3141 3142 3142 3142 3142 3142 3142 3142 3141 3140 3139 3139 3138 3138 3139 3140 3141 3142 3143 3144 3145 3146 3146 3147 3148 3148 3150 3152 3152 3151 3153 3156 3157 3157 3158 3158 3157 3157 3158 3157 3158 3159 3159 3160 3161 3161 3162 3162 3163
3148 3147 3146 3146 3145 3145 3145 3144 3144 3144 3144 3144 3144 3144 3144 3144 3143 3143 3143 3143 3142 3142 3142 3143 3141 3141 3141 3140 3140 3140 3139 3138 3138 3137 3136 3136 3136 3137 3138 3139 3140 3140 3140 3141 3141 3141 3141 3140 3139 3139 3138 3136 3135 3136 3138 3139 3140 3141 3142 3143 3144 3144 3145 3146 3147 3149 3150 3151 3151 3153 3154 3155 3157 3158 3157 3156 3157 3157 3157 3157 3159 3159 3160 3160 3161 3162 3162 3163
3148 3147 3146 3145 3145 3144 3144 3144 3144 3144 3144 3144 3144 3143 3143 3143 3142 3142 3141 3142 3142 3141 3141 3141 3140 3139 3139 3138 3139 3139 3138 3136 3136 3135 3135 3135 3135 3135 3136 3136 3137 3137 3138 3139 3139 3140 3140 3140 3139 3138 3137 3134 3133 3134 3135 3136 3138 3139 3140 3141 3142 3143 3144 3144 3145 3147 3149 3150 3151 3152 3152 3154 3155 3155 3155 3155 3156 3156 3155 3156 3158 3159 3159 3160 3160 3161 3162 3162
3148 3147 3146 3145 3145 3144 3144 3143 3144 3144 3144 3143 3143 3143 3142 3142 3141 3141 3140 3140 3140 3139 3139 3139 3138 3137 3137 3137 3137 3137 3135 3134 3133 3133 3133 3133 3133 3133 3133 3133 3134 3134 3136 3137 3137 3138 3139 3139 3138 3138 3137 3134 3132 3132 3132 3134 3136 3137 3139 3140 3140 3141 3142 3142 3144 3146 3147 3148 3150 3150 3151 3152 3152 3152 3153 3154 3154 3154 3154 3155 3157 3158 3159 3159 3160 3161 3161 3162
3148 3147 3146 3145 3145 3144 3144 3144 3144 3144 3144 3143 3142 3142 3142 3141 3141 3140 3140 3139 3138 3137 3137 3137 3136 3136 3136 3136 3135 3133 3132 3131 3131 3130 3130 3130 3130 3131 3131 3132 3132 3132 3133 3134 3135 3136 3138 3138 3137 3139 3138 3134 3131 3131 3131 3132 3133 3134 3136 3137 3138 3139 3140 3141 3142 3143 3144 3146 3148 3149 3150 3150 3150 3150 3151 3152 3153 3153 3154 3155 3156 3157 3158 3159 3159 3160 3161 3162